COSMOS 1812

基本信息
目录编号:
17295
目录名称:
COSMOS 1812
国际标识:
1987-003A
轨道中心:
EARTH
卫星名称:
COSMOS 1812
卫星全名:
--
卫星状态:
在轨 (已飞行14293 天)
发射日期:
1987-01-14 UTC
国别 :
俄罗斯(独联体) (CIS)
星等 :
--
轨道信息
数据来源 国际轨道数据
星历时间: 2026-03-03T06:33:20+0800
7小时前
查看轨道信息
半长轴: 6592.789km
偏心率: 0.0007366
轨道倾角: 82.472°
近地点辐角 288.535°
升交点赤经 203.343°
平近点角 71.514°
近地点: 209.795km
远地点: 219.509km
周期: 88.790分钟
每日圈数: 16.218065
详细信息
使用方式:
暂无
2D轨道图
3D轨道图
轨道高度分析图
轨道倾角分析图
轨道综合分析图
查看轨道综合分析图